AirNav   Pilot Hours Calculator
 
 1340 users online  

H04 Vinita Municipal Airport
Vinita, Oklahoma, USA

GOING TO VINITA?


FAA INFORMATION EFFECTIVE 26 JANUARY 2023

Location

FAA Identifier: H04
Lat/Long: 36-36-52.6186N 095-09-06.1012W
36-36.876977N 095-09.101687W
36.6146163,-95.1516948
(estimated)
Elevation: 695.2 ft. / 212 m (estimated)
Variation: 05E (1985)
From city: 2 miles SE of VINITA, OK
Time zone: UTC -6 (UTC -5 during Daylight Saving Time)
Zip code: 74301

Airport Operations

Airport use: Open to the public
Activation date: 01/1965
Control tower: no
ARTCC: KANSAS CITY CENTER
FSS: MC ALESTER FLIGHT SERVICE STATION
NOTAMs facility: MLC (NOTAM-D service available)
Attendance: UNATNDD
Wind indicator: lighted
Segmented circle: yes
Lights: ACTVT MIRL RWY 17/35 - CTAF.
Beacon: white-green (lighted land airport)
Operates sunset to sunrise.

Airport Communications

CTAF: 122.9
WX AWOS-3PT at GMJ (20 nm E): 119.025 (918-786-8350)

Nearby radio navigation aids

VOR radial/distance  VOR name  Freq  Var
TULr043/39.7TULSA VORTAC114.4008E

Airport Services

Parking: tiedowns
Airframe service: NONE
Powerplant service: NONE
Bottled oxygen: NONE
Bulk oxygen: NONE

Runway Information

Runway 17/35

Dimensions: 4209 x 60 ft. / 1283 x 18 m
Surface: asphalt/concrete, in good condition
Runway edge lights: medium intensity
RUNWAY 17  RUNWAY 35
Latitude: 36-37.223772N36-36.530182N
Longitude: 095-09.102705W095-09.100667W
Elevation: 695.2 ft.678.6 ft.
Traffic pattern: leftleft
Runway heading: 174 magnetic, 179 true354 magnetic, 359 true
Displaced threshold: 210 ft.no
Markings: basic, in good conditionbasic, in good condition
Visual slope indicator: 2-light PAPI on left (3.00 degrees glide path)2-light PAPI on left (3.00 degrees glide path)
Touchdown point: yes, no lightsyes, no lights

Airport Ownership and Management from official FAA records

Ownership: Publicly-owned
Owner: CITY OF VINITA
104 E. ILLINOIS, PO BOX 329
VINITA, OK 74301
Phone 918-256-6468
Manager: ALLEN GOFORTH
747 E. AIRPORT ROAD, 104 E. ILLINOIS
VINITA, OK 74301
Phone 918-244-2704
DIRECTOR OF OPERATIONS. ARPT ATTENDANT: TERRY WILLIAMS 918-397-0193.

Airport Operational Statistics

Aircraft based on the field: 34
Single engine airplanes: 30
Multi engine airplanes: 3
Gliders airplanes: 1
    
Aircraft operations: avg 29/day *
50% transient general aviation
50% local general aviation
* for 12-month period ending 20 February 2020

Additional Remarks

ULTRALIGHT ACTVTY ON & INVOF ARPT.
INTERSTATE HWY 425 FT NORTH OF RY 17 END.
FOR CD CTC KANSAS CITY ARTCC AT 913-254-8508.

Instrument Procedures

There are no published instrument procedures at H04.

Some nearby airports with instrument procedures:

1K8 - South Grand Lake Regional Airport (8 nm SE)
KGMJ - Grove Regional Airport (20 nm E)
KMIO - Miami Regional Airport (22 nm NE)
H71 - Mid-America Industrial Airport (25 nm S)
KGCM - Claremore Regional Airport (25 nm SW)
 
Loc | Ops | Rwys | IFR | FBO | Links
Com | Nav | Svcs | Stats | Notes
Area around H04 (Vinita Municipal Airport)
 
Road maps at: MapQuest Bing Google
 
Aerial photo
WARNING: Photo may not be current or correct
Aerial photo of H04 (Vinita Municipal Airport)
Photo by Dean Ritter, Aerial Oklahoma

Do you have a better or more recent aerial photo of Vinita Municipal Airport that you would like to share? If so, please send us your photo.

 
Sectional chart

 
Airport distance calculator
Flying to Vinita Municipal Airport? Find the distance to fly.

From to H04

Sunrise and sunset
Times for 04-Feb-2023
 Local
(UTC-6)
 Zulu
(UTC)
Morning civil twilight06:5412:54
Sunrise07:2113:21
Sunset17:4823:48
Evening civil twilight18:1500:15

Current date and time
Zulu (UTC)  04-Feb-2023 17:53:40
Local (UTC-6)  04-Feb-2023 11:53:40
 
METAR
KGMJ 
20nm E 
041735Z AUTO 20012G17KT 10SM CLR 09/02 A3025 RMK AO2
KMIO 
22nm NE 
041735Z AUTO 18016G23KT 10SM CLR 08/01 A3023 RMK AO2
KGCM 
25nm SW 
041735Z AUTO 18016G22KT 10SM CLR 08/02 A3024 RMK AO2
KH71 
25nm S 
041735Z AUTO 19014G21KT 10SM CLR 07/01 A3025 RMK AO2
KCFV 
34nm NW 
041652Z AUTO 19013G22KT 10SM CLR 06/00 A3021 RMK AO2 PK WND 19028/1630 SLP236 T00610000
TAF
KBVO 
43nm W 
041608Z 0416/0512 18013KT P6SM BKN200 WS020/21040KT FM041700 19015G25KT P6SM BKN200 FM050000 20013KT P6SM SCT200 WS020/22040KT FM050900 VRB06KT P6SM SCT200
KTUL 
43nm SW 
041608Z 0416/0512 17013KT P6SM BKN200 WS020/21040KT FM041700 19016G27KT P6SM BKN200 FM050000 19013KT P6SM SCT200 WS020/22040KT FM051000 26006KT P6SM SCT200
KJLN 
45nm NE 
041120Z 0412/0512 20018G26KT P6SM BKN250 WS020/23045KT FM041900 20020G33KT P6SM OVC220 FM050500 21019G28KT P6SM BKN200 FM050800 24015KT P6SM SCT210
KXNA 
46nm SE 
041128Z 0412/0512 19010KT P6SM BKN200 WS020/22040KT FM041500 20014G25KT P6SM BKN200 FM050100 19013KT P6SM BKN200 WS020/22040KT
NOTAMs
Click for the latest NOTAMs
NOTAMs are issued by the DoD/FAA and will open in a separate window not controlled by AirNav.

 

 
 

Where to Eat: Catering, Restaurants, Food shops

  
 Business Name 
 
 Contact 
 
 Services / Description 
 
Distance
 
Comments
  
McDonald's 918-256-5571
no information available

If you are affiliated with McDonald's and would like to show here your services, contact info, web link, logo, and more, click here
0.1 miles  
   2 read write
 

Would you like to see your business listed on this page?

 If your business provides an interesting product or service to pilots, flight crews, aircraft, or users of the Vinita Municipal Airport, you should consider listing it here.  To start the listing process, click on the button below
 
Add a business
 

Other Pages about Vinita Municipal Airport

Update a link
 
Copyright © AirNav, LLC. All rights reserved. Privacy Policy  Contact